Terug naar catalogus

DIAMANT R/B

ActiefUNKNOWN
NORAD 2017·ROCKET BODY·🇫🇷 France

Gelanceerd Feb 17, 1966 vanaf Hammaguir Space Track Range

Loading…

Volgende Passages (komende 24 uur)

TLE

VersSource: Space-Track

Epoch: Sep 14, 2026, 09:57 UTC

1 02017U 66013B   26257.41479933  .00001018  00000-0  27151-3 0  9997
2 02017  34.0630  55.1066 1033230  65.7650 304.7406 12.93785031781337

Volg DIAMANT R/B in realtime met AllMySat

Download on the App Store